Theta_e
307 310 312 313 314 314 315 316 317 318 317 318 317 317 316 315 315 315 313 312 312 310 308 307 306 305 304 303 302 301 301 300 300 300 299 297 297 296 295 294 291 290 289 288 288 289 288 287 287 288 290 289 287 287 287 288 289 289 290 289 289 289 288 287 285 285 288 289 287 287 287 287 286 288 286 287 287 287 287 287 287 287 287 287 288
306 308 309 311 312 313 313 314 314 314 315 315 314 314 313 313 311 309 309 306 308 306 305 304 304 304 303 302 301 300 299 299 297 298 297 295 294 294 293 292 289 288 288 287 287 287 287 287 286 287 288 288 288 287 287 287 288 288 288 287 287 286 287 285 284 284 284 286 285 287 286 287 285 287 285 285 285 286 286 286 287 287 287 287 287
307 308 309 310 310 311 311 311 312 312 312 311 310 309 308 306 306 306 303 301 302 304 303 302 302 301 300 299 298 297 298 297 297 297 296 295 293 292 291 290 289 288 287 286 287 288 288 288 287 287 288 287 287 287 288 287 287 287 286 286 285 285 285 285 283 282 282 282 285 284 284 285 285 284 285 285 285 286 285 285 286 287 287 287 287
307 308 309 309 309 308 309 308 308 308 308 306 305 303 303 302 302 302 301 301 300 299 301 300 299 298 297 296 295 295 295 295 295 295 295 293 291 289 289 289 288 287 286 285 287 287 287 287 287 287 287 286 286 286 287 287 286 286 285 285 284 284 284 284 284 282 282 281 283 283 284 283 284 285 285 285 285 285 285 285 286 286 286 287 287
307 307 305 305 304 304 304 304 305 304 302 301 300 300 300 300 299 299 299 299 298 298 296 297 296 296 295 294 294 293 292 292 292 291 290 291 289 288 287 286 286 286 286 286 286 287 287 286 286 286 287 286 285 285 286 285 285 285 284 284 283 284 284 284 283 283 282 281 281 284 284 284 284 284 285 283 284 284 285 285 285 285 286 287 287
303 302 302 302 301 301 301 301 301 301 300 299 299 298 298 299 298 298 299 297 296 296 296 295 295 293 292 292 291 291 290 291 290 289 288 287 287 287 286 286 286 286 286 286 286 287 286 286 286 286 286 285 285 285 285 284 284 284 283 283 283 283 283 283 283 282 282 282 282 281 283 282 282 283 284 284 282 282 283 284 285 285 285 285 286
301 301 300 300 299 299 300 300 299 298 298 297 297 297 297 297 297 297 296 296 295 293 292 292 291 292 291 291 290 289 289 289 288 287 287 286 286 286 286 286 286 286 286 286 286 286 286 285 285 285 285 285 284 284 284 284 284 283 283 283 283 283 282 282 282 282 282 281 281 282 282 283 282 281 283 284 284 283 282 281 281 284 284 285 284
299 299 299 299 299 298 297 297 297 296 296 296 296 296 296 295 295 294 294 294 293 292 292 291 290 290 290 289 289 288 288 287 287 287 287 287 286 286 286 285 285 285 285 285 285 285 284 284 284 284 284 285 285 284 284 284 284 283 284 283 283 282 282 282 282 282 281 281 280 280 281 281 282 283 284 283 282 282 283 282 280 281 282 284 285
298 298 298 297 295 295 294 294 295 295 294 295 294 294 293 293 292 292 292 292 292 291 291 290 289 287 287 287 287 287 287 286 286 286 286 286 286 286 286 285 285 284 284 284 284 284 284 284 284 284 285 284 284 285 285 284 284 283 283 284 283 282 282 282 282 281 281 281 280 281 280 280 281 281 280 280 280 280 281 282 281 282 282 282 283
297 297 296 294 293 293 293 293 294 294 294 293 292 291 291 291 291 291 291 290 290 289 289 289 288 287 286 286 286 286 286 286 285 286 286 286 286 286 285 285 285 284 283 283 283 283 283 283 283 283 283 283 284 285 285 285 285 284 284 284 283 282 282 281 281 281 280 279 279 279 279 279 280 280 280 281 282 281 281 281 280 281 281 281 282
296 295 293 292 292 292 292 292 292 293 292 292 291 291 290 290 290 289 289 288 288 288 288 287 286 286 286 286 286 286 286 286 287 288 287 287 286 285 284 284 284 283 283 282 281 281 282 282 282 282 283 283 284 284 285 285 285 284 284 284 284 283 282 281 281 281 280 279 279 279 279 279 280 281 280 280 280 280 280 281 280 280 278 277 275
295 293 291 291 291 292 291 292 291 291 290 290 290 290 290 289 288 288 287 287 286 287 286 286 286 286 286 286 286 286 287 288 289 288 288 287 285 284 284 283 283 282 282 282 281 281 281 281 282 282 283 283 283 283 283 284 284 284 284 284 284 284 284 283 281 279 280 279 279 279 279 279 279 279 279 279 279 280 280 280 279 278 277 276 276
293 291 291 291 291 291 291 291 291 290 290 289 289 289 288 288 287 287 286 286 286 285 285 285 285 286 286 286 286 287 288 289 289 288 287 287 286 284 283 282 282 281 281 281 281 280 280 281 281 281 281 281 282 283 284 284 284 283 283 283 283 283 282 283 283 282 282 279 279 278 279 278 278 278 280 280 281 279 279 278 278 278 277 276 277
292 291 290 291 291 291 291 291 290 290 288 288 288 288 287 287 287 286 285 285 285 284 285 285 285 285 285 285 286 286 287 288 289 288 287 286 285 283 282 282 281 281 281 280 280 280 280 280 280 280 281 282 282 283 284 284 283 283 282 282 281 280 280 281 281 280 280 280 279 277 279 280 278 279 281 282 279 278 278 277 277 276 276 276 277
291 290 290 290 290 290 290 290 289 288 287 287 287 287 287 286 285 284 284 284 284 284 284 284 284 284 285 285 285 286 287 288 288 287 287 286 285 283 281 281 281 280 280 280 280 280 280 281 281 281 281 281 283 284 283 282 282 281 279 278 279 279 280 280 280 280 279 280 279 279 279 280 280 281 281 281 280 279 279 278 277 277 277 277 278
291 290 290 290 290 290 290 289 288 287 287 287 287 286 285 285 284 283 283 283 283 283 283 284 283 283 284 284 285 285 287 288 287 287 286 285 284 281 281 280 280 280 280 280 280 280 280 280 280 281 281 281 284 284 282 281 279 276 275 277 277 278 279 280 279 279 279 279 279 279 280 280 282 281 281 280 279 280 279 278 278 277 275 274 274
291 290 290 290 290 290 289 288 287 287 286 286 286 285 284 284 283 283 282 282 282 282 282 283 283 283 283 283 284 285 286 287 287 286 285 284 282 280 280 280 279 279 279 279 280 280 280 280 280 281 281 282 284 284 282 280 276 275 275 275 276 276 277 278 278 278 278 278 278 279 280 281 282 281 280 280 280 279 276 275 274 274 273 272 273
291 290 290 289 289 289 289 288 287 286 286 286 285 285 284 283 282 283 282 282 282 281 281 281 282 282 282 283 283 283 284 285 286 286 285 283 281 280 280 279 278 278 278 279 279 279 280 281 281 281 282 282 283 283 282 279 276 275 275 274 273 273 276 276 275 274 275 276 276 277 279 280 279 278 278 279 279 278 274 271 273 274 272 273 271
290 290 290 289 289 289 288 287 287 286 286 285 284 283 283 282 281 281 282 282 281 280 280 280 280 280 281 282 281 282 283 284 285 285 284 283 281 280 279 279 277 277 278 278 278 278 279 280 281 282 282 282 283 282 280 278 276 275 275 274 273 273 274 273 271 271 271 271 272 274 275 276 275 275 275 277 276 275 275 274 274 273 272 272 272
291 291 290 288 288 287 287 286 286 286 285 284 283 283 282 281 280 280 280 280 279 279 279 279 279 279 279 280 281 281 282 283 284 284 284 283 282 280 279 278 277 277 277 277 277 278 278 279 280 283 283 282 282 282 280 278 275 275 275 274 273 273 273 269 270 271 270 270 270 272 272 273 273 274 274 273 273 273 274 274 274 273 272 272 272
290 289 288 287 286 286 286 286 285 285 285 283 282 281 281 280 279 279 278 278 278 278 278 278 278 278 279 279 280 281 281 281 282 284 284 283 283 281 279 279 278 277 277 276 277 277 277 278 279 282 282 282 281 281 280 278 277 275 275 274 274 274 271 268 268 271 269 268 269 270 270 270 271 272 272 271 271 272 272 273 273 273 272 271 271
288 287 286 286 285 285 285 285 285 284 282 281 280 279 279 279 279 278 278 277 277 276 276 277 277 277 278 278 279 280 281 281 282 283 283 283 283 281 279 279 279 277 276 276 276 276 277 278 279 280 281 281 280 280 279 278 277 275 275 276 275 274 269 268 268 268 268 268 268 268 268 269 270 270 270 270 270 270 270 271 272 272 272 273 272
285 285 285 284 284 283 283 282 282 281 280 281 280 278 278 278 277 277 277 276 276 276 276 276 276 276 276 278 279 281 281 281 282 282 283 283 283 281 280 279 280 277 276 275 276 276 277 278 279 280 280 280 279 279 278 277 276 275 275 274 273 272 269 268 268 266 266 266 267 266 267 268 268 268 268 268 268 269 269 270 270 271 271 272 273
284 283 283 283 282 281 281 280 280 280 280 280 279 278 277 277 277 277 277 276 276 275 275 275 275 275 275 276 278 279 280 281 282 282 282 283 283 282 281 281 281 277 276 276 276 276 276 277 278 280 280 279 279 278 277 275 275 275 274 272 271 269 267 267 266 265 265 265 265 265 266 267 267 267 267 267 267 267 268 268 269 270 270 271 272
281 281 281 280 279 279 279 279 279 279 279 279 278 277 277 276 276 276 276 276 276 275 275 275 275 275 275 275 276 277 279 280 281 282 282 282 283 283 282 282 280 279 275 275 275 275 277 278 279 280 279 278 277 276 275 274 274 273 272 270 267 265 266 266 265 264 264 264 264 265 265 266 267 267 266 266 266 267 267 267 268 269 269 270 271
278 278 277 277 277 276 276 276 276 277 277 278 278 278 277 277 277 276 276 276 276 275 275 275 274 274 274 275 275 275 276 277 278 280 281 282 282 282 282 281 279 278 275 275 276 278 279 279 279 279 277 274 271 269 269 270 271 270 269 266 263 264 264 264 263 263 263 263 264 264 265 266 266 265 265 265 265 265 265 265 266 266 267 268 268
278 276 276 276 275 275 276 276 275 275 276 277 277 277 277 278 277 276 276 275 275 275 275 274 274 274 274 274 274 275 275 275 276 278 279 279 280 280 280 279 279 277 275 275 277 277 277 276 274 274 272 273 271 271 269 268 265 265 264 263 263 263 264 264 263 262 262 263 263 264 264 265 265 264 263 263 263 264 265 264 264 265 265 266 267
277 276 276 275 275 275 276 274 275 275 276 276 276 276 277 277 277 276 276 276 275 275 275 275 275 275 275 275 274 274 274 275 275 275 276 277 277 278 277 276 276 273 270 268 268 270 271 273 272 268 267 266 265 263 263 263 263 263 262 262 262 262 264 265 264 262 262 263 263 264 264 263 262 262 263 262 263 263 264 263 263 263 264 265 266
276 276 275 274 274 274 275 275 275 276 275 275 276 277 277 277 277 277 277 277 278 277 276 276 276 276 276 275 273 273 273 273 274 278 277 278 276 275 275 275 274 271 270 270 265 264 264 265 265 264 264 264 263 262 262 262 261 260 259 260 261 261 261 261 261 261 261 261 262 262 262 262 261 262 262 261 262 262 263 262 263 262 263 265 265
275 275 274 274 274 273 274 274 274 275 275 275 274 273 275 277 276 276 276 277 279 279 279 277 277 277 276 276 276 274 274 275 278 279 279 279 279 278 277 277 275 272 273 274 268 264 263 263 263 263 262 262 262 261 261 261 260 260 260 263 261 260 261 261 260 260 261 261 262 262 262 261 260 261 260 260 260 261 262 262 261 262 262 262 263
275 274 273 274 274 274 274 274 273 274 274 274 274 274 274 274 278 279 278 278 279 280 280 280 280 279 277 276 277 278 277 278 279 280 279 279 279 278 278 277 277 275 276 270 264 263 262 262 261 260 261 261 261 261 261 260 260 259 259 259 259 260 260 260 260 260 260 260 261 262 261 260 260 260 260 259 260 260 260 261 261 261 261 262 263
275 274 273 273 273 273 274 274 273 273 273 273 273 274 274 273 273 277 278 278 279 279 280 280 280 280 280 278 276 276 278 279 280 280 280 279 279 278 278 277 277 277 276 272 264 262 263 263 261 261 260 260 261 260 260 259 259 258 258 258 258 259 259 258 260 259 259 259 260 261 260 260 260 260 259 259 259 259 259 259 260 260 260 261 262
275 273 273 273 273 273 273 273 273 273 273 272 272 273 273 274 273 273 275 278 279 279 280 280 280 280 280 279 279 277 278 280 281 280 280 280 279 279 278 278 278 278 277 269 264 263 261 261 262 260 260 260 260 260 259 258 258 258 258 258 257 258 258 258 259 258 258 259 260 260 260 259 259 259 259 258 258 257 258 258 259 259 260 260 261
273 273 273 272 272 273 273 273 273 273 273 273 273 273 274 274 275 274 273 274 276 278 280 280 280 280 280 280 279 279 279 280 281 280 280 280 279 279 279 277 279 279 275 267 264 263 261 260 260 259 260 259 258 259 258 258 258 258 258 258 258 257 257 257 257 257 257 258 258 258 258 258 258 258 258 258 258 257 257 258 258 258 258 259 260
270 271 270 271 273 273 273 273 273 272 272 272 273 273 274 274 275 275 274 274 274 274 275 277 279 280 279 279 280 280 280 281 281 281 281 280 280 280 279 275 274 274 272 265 263 262 260 261 260 260 259 258 258 258 259 258 258 257 257 256 256 256 256 256 257 256 257 257 257 257 257 258 257 257 258 256 256 256 257 257 257 258 258 259 260
271 271 271 271 272 272 272 272 273 273 273 273 273 274 274 275 275 275 276 276 276 275 275 276 276 279 279 279 280 280 281 281 281 281 280 280 280 280 272 270 270 270 268 264 264 262 261 261 261 260 259 259 258 258 258 257 257 257 256 256 256 255 255 255 256 255 255 256 256 257 257 256 256 256 256 256 255 256 256 256 257 258 258 258 260
270 271 271 271 271 272 272 272 272 273 273 273 273 273 274 274 275 275 276 276 275 276 275 275 275 275 277 276 278 280 281 281 281 281 280 279 280 277 271 270 268 267 265 263 261 260 260 260 259 259 258 258 258 258 257 257 256 255 257 256 255 255 254 254 255 255 255 255 255 254 253 254 255 254 256 255 256 256 256 257 257 257 258 258 259
270 270 270 269 269 270 270 270 271 272 272 272 272 273 273 274 274 275 275 275 275 275 275 274 274 274 273 273 277 277 278 280 280 279 279 278 277 275 270 268 267 265 264 263 262 261 261 260 258 258 258 258 258 257 257 257 256 255 255 255 255 255 257 257 258 255 254 254 254 254 254 255 255 255 256 256 255 255 256 256 256 256 256 257 258
267 269 270 271 271 270 270 270 270 271 271 271 272 272 272 273 273 273 274 275 274 274 274 274 273 274 274 274 275 276 276 275 274 273 274 274 274 274 270 267 265 264 263 262 261 260 262 260 258 258 258 258 258 257 256 256 255 254 254 254 254 254 256 255 254 253 253 253 253 254 254 254 254 255 255 255 255 255 255 255 256 256 255 256 256
268 268 269 270 269 270 269 269 270 270 271 271 272 272 272 272 273 273 273 274 274 273 274 273 273 273 274 274 273 274 273 273 274 273 273 273 272 271 268 266 265 264 262 262 261 260 260 260 259 258 258 257 257 257 256 256 255 255 254 254 254 253 253 253 253 253 253 253 253 253 253 253 254 254 254 255 255 255 255 255 256 256 256 256 256
267 267 267 269 269 268 269 269 269 270 270 271 271 272 272 272 272 273 273 273 273 273 273 273 274 274 273 272 275 275 274 273 273 272 272 272 271 269 267 267 266 264 263 262 261 260 260 260 259 259 259 258 257 257 256 255 255 255 254 254 254 254 254 252 252 252 252 252 253 253 253 253 254 254 254 255 257 257 256 257 256 256 256 256 257
266 266 267 267 269 269 268 269 269 269 270 270 270 271 271 271 271 272 272 272 272 272 272 272 272 272 272 274 274 275 274 273 273 272 271 270 269 268 266 266 266 265 264 264 263 260 260 260 258 258 258 257 256 256 256 255 255 255 255 254 254 254 253 253 253 252 252 252 252 251 251 252 253 254 255 257 255 255 255 255 255 255 255 256 256
266 266 267 267 268 268 268 269 270 269 269 269 270 269 270 271 271 271 271 271 271 271 271 271 271 270 269 272 272 274 273 272 269 270 270 269 268 267 266 265 264 264 264 264 263 262 260 259 258 257 257 257 257 256 256 256 256 255 254 254 254 253 253 253 252 252 251 251 251 252 252 252 254 254 254 254 254 254 254 254 255 255 255 255 255
265 265 266 266 267 267 267 267 267 268 268 269 269 270 270 270 271 271 271 271 271 271 271 271 270 269 267 269 270 271 271 271 270 269 268 267 266 266 266 265 264 263 262 262 261 260 259 259 258 257 257 257 257 256 256 257 256 255 255 254 253 253 253 252 252 252 252 252 252 252 252 252 253 253 253 254 253 253 254 253 254 255 255 255 255
265 265 264 264 265 265 266 266 267 267 268 268 268 269 269 269 270 270 270 270 270 270 270 270 270 268 266 267 268 269 270 270 269 267 267 266 266 265 265 264 263 263 262 261 259 258 258 258 258 257 256 256 255 255 255 255 255 255 256 255 254 254 254 253 253 253 252 251 252 252 252 252 251 251 252 253 253 253 254 253 254 255 255 255 254
263 263 264 264 265 265 265 266 267 268 268 269 269 269 269 269 269 269 270 270 270 270 270 270 269 268 266 266 267 267 268 269 269 268 266 266 265 265 264 264 263 263 262 261 259 256 257 258 258 258 257 256 254 254 254 254 254 254 255 255 255 255 255 254 253 251 251 251 252 251 252 251 251 252 252 252 253 254 253 253 252 254 254 254 254
265 266 266 266 267 267 267 268 268 268 268 268 269 269 269 269 269 269 268 269 269 269 269 269 269 267 266 266 266 266 267 267 268 267 266 266 265 265 264 263 262 262 261 260 258 257 256 257 258 258 258 257 255 254 254 254 254 254 254 254 254 254 253 253 252 252 252 251 252 251 251 251 252 252 253 254 254 254 254 254 253 253 253 254 254
263 263 264 265 265 264 265 265 266 266 267 267 268 268 268 268 268 268 268 268 268 268 268 268 268 268 266 266 266 266 266 267 267 267 267 266 266 265 265 263 262 261 260 259 258 257 257 257 257 258 257 257 256 255 254 254 253 253 253 253 253 253 252 252 251 251 251 251 251 250 250 250 251 251 252 252 251 253 253 253 253 254 253 254 254
262 262 262 264 264 265 265 265 266 266 266 266 266 267 267 267 267 268 268 268 268 268 268 267 267 267 266 266 266 266 266 266 267 267 267 267 266 265 264 263 261 261 260 258 258 257 257 257 257 257 257 257 256 255 255 254 253 253 253 253 253 253 253 253 252 251 251 251 250 250 250 250 250 250 251 252 252 253 253 253 252 253 254 254 254
260 260 260 261 262 262 263 263 263 264 264 265 265 265 266 266 266 266 267 267 267 267 267 267 267 266 266 266 265 266 266 265 266 266 266 266 265 265 264 262 260 259 259 258 258 257 257 257 257 257 256 256 256 255 255 254 254 253 253 253 253 253 253 253 253 253 252 251 251 250 250 250 250 250 251 252 252 252 252 252 252 253 253 252 252
258 258 258 258 259 259 259 259 260 261 261 262 263 264 264 264 264 265 265 265 265 266 266 266 267 267 266 266 266 266 265 266 266 266 266 266 265 264 262 260 259 258 258 258 258 257 257 256 256 256 256 255 255 255 255 254 254 254 254 254 254 254 254 254 253 254 254 253 251 251 251 250 250 250 251 252 252 251 252 252 252 252 252 252 252
Wind_Speed
7 8 7 8 8 9 8 7 8 7 8 8 9 9 8 8 8 7 6 6 6 7 7 8 8 8 8 9 9 7 9 9 7 9 10 9 7 9 8 9 12 9 9 9 8 9 9 10 8 6 5 6 6 6 6 5 5 5 5 4 4 4 3 0 2 7 3 2 5 6 8 10 9 9 10 9 9 9 10 9 9 9 9 9 11
6 6 5 5 7 6 6 5 6 6 7 7 7 7 7 7 7 6 7 6 7 7 7 8 8 10 10 9 9 9 9 9 8 9 10 10 8 7 8 9 10 9 8 9 8 7 9 10 9 8 5 7 6 7 5 5 5 6 5 5 5 5 4 2 2 3 6 4 5 5 7 9 9 8 11 14 13 11 11 8 6 7 8 9 10
5 5 5 6 6 6 6 6 6 7 8 6 6 6 6 5 6 8 7 6 4 7 9 9 9 9 9 9 9 7 8 9 6 9 10 11 10 8 7 9 9 9 9 8 7 7 8 8 7 6 5 7 7 7 5 7 6 7 7 6 5 5 4 3 2 3 5 6 5 8 8 9 8 11 11 9 10 10 11 10 8 7 5 7 9
5 5 5 5 6 6 6 6 7 7 7 6 7 5 6 6 6 7 8 7 8 6 7 9 8 9 10 9 8 9 8 8 7 6 10 11 10 9 7 8 8 8 9 9 8 8 8 8 7 7 7 8 8 7 7 7 7 7 7 6 5 5 4 3 3 3 4 7 6 8 8 9 9 8 8 9 11 12 10 10 7 7 7 7 9
5 5 5 6 5 6 5 5 6 6 6 6 7 7 7 7 6 8 8 8 8 8 7 6 9 8 8 10 10 9 8 9 9 8 8 8 9 9 9 9 8 8 8 8 8 8 7 8 7 7 6 9 8 7 7 8 7 7 7 6 5 4 3 4 4 4 4 7 8 6 7 7 7 8 9 12 13 12 10 10 10 9 8 9 10
5 5 5 6 5 6 5 5 7 7 7 7 8 7 7 7 8 6 8 10 8 7 9 6 8 9 9 8 8 9 9 8 9 9 10 9 10 9 8 9 9 8 8 7 7 6 8 8 7 6 7 8 8 8 7 8 7 7 7 5 4 4 4 4 4 4 5 6 7 8 6 8 9 6 8 11 13 15 16 13 9 5 8 11 10
5 6 5 6 6 6 6 6 6 7 7 7 6 7 7 7 8 9 6 10 11 9 8 9 6 9 9 9 9 9 9 9 10 10 10 11 11 10 9 9 9 8 8 8 7 8 8 8 8 7 8 8 9 8 8 8 7 7 6 5 5 5 5 5 5 6 6 7 6 6 8 7 7 10 9 9 9 10 14 18 20 15 11 10 11
6 6 6 6 6 6 5 5 6 7 7 7 7 7 7 7 7 8 8 9 9 10 10 10 7 7 8 8 8 8 9 9 10 10 10 9 10 9 10 10 10 9 9 9 10 9 8 8 7 7 7 7 8 8 8 7 7 6 5 5 6 6 5 5 6 6 6 6 6 7 7 9 8 6 7 10 12 11 11 12 16 19 18 17 14
6 6 6 7 5 6 5 5 6 7 8 7 8 8 7 7 8 7 8 9 8 9 9 10 10 9 7 7 8 7 8 8 7 8 9 9 9 10 10 10 10 10 11 11 9 8 8 7 7 7 8 9 10 8 9 7 5 6 5 5 5 5 5 5 5 5 6 6 6 6 7 8 9 11 12 12 12 12 14 14 15 15 16 17 15
6 6 6 6 5 6 6 6 7 7 8 8 7 8 8 8 8 8 8 9 9 8 9 9 9 10 10 8 8 8 7 6 8 11 9 10 10 9 8 9 9 9 10 10 9 8 8 7 8 10 10 10 10 10 10 9 7 5 4 4 4 4 3 4 4 5 5 6 7 8 9 9 10 11 12 11 11 12 13 14 15 16 16 15 14
6 7 6 6 6 7 7 7 7 8 7 8 7 9 8 8 8 9 8 8 9 8 10 11 10 9 10 9 10 7 6 6 14 13 14 14 10 9 10 9 9 9 8 9 10 9 8 7 7 7 8 7 8 9 9 8 6 6 6 5 4 3 2 3 3 4 4 5 6 7 8 9 10 10 10 11 11 12 12 12 14 14 14 15 16
7 6 7 7 6 7 7 8 7 8 8 8 8 8 9 9 9 9 9 9 7 7 10 11 9 8 7 8 8 7 7 11 15 15 15 14 10 9 9 9 8 8 8 9 9 8 9 8 6 4 4 4 3 2 1 1 5 5 5 5 4 5 5 3 2 3 4 5 6 6 7 8 9 9 10 11 12 13 12 12 12 12 14 14 13
7 7 7 7 7 7 7 9 8 8 8 8 8 8 9 10 10 9 9 8 9 11 11 10 9 8 8 9 9 8 9 13 16 16 16 16 15 11 8 8 9 9 8 9 9 9 8 8 7 4 2 2 2 2 2 1 2 5 4 4 6 7 6 6 6 4 4 4 5 6 6 8 9 8 10 12 12 13 13 12 12 12 12 13 12
7 8 7 7 8 8 8 9 9 9 8 8 8 9 9 9 9 8 9 8 11 10 9 10 8 9 9 9 8 8 10 13 17 17 17 17 16 12 8 9 9 9 9 9 8 8 8 8 8 5 3 3 2 3 3 4 4 3 3 4 4 4 5 5 6 7 5 3 4 6 7 7 8 10 11 11 11 11 11 12 13 14 14 14 16
6 7 8 7 8 8 9 9 10 9 9 8 8 8 9 9 9 9 9 10 10 8 9 9 9 9 9 8 8 8 7 16 17 18 18 18 17 13 9 9 9 9 8 8 8 8 7 6 7 7 5 3 3 5 5 5 5 4 4 3 3 2 2 3 5 5 4 4 5 5 7 7 8 9 10 9 10 9 10 11 13 13 14 16 14
7 7 8 8 8 8 9 9 9 10 10 9 9 9 8 10 10 8 8 7 6 7 5 6 9 9 8 9 9 9 10 16 17 17 18 18 17 9 9 9 9 9 8 7 7 6 6 5 5 5 4 2 4 10 8 6 6 5 4 3 2 2 1 4 7 7 7 6 5 6 6 7 9 8 9 10 9 9 8 8 7 9 12 13 14
9 9 9 9 9 8 8 10 10 10 9 10 9 9 10 9 8 9 10 8 9 7 7 7 6 9 9 10 10 10 10 13 16 17 18 19 13 8 9 8 8 9 7 7 6 6 5 4 4 4 3 3 7 9 11 9 5 5 4 3 2 1 1 3 7 9 10 11 11 10 9 9 9 11 13 14 11 10 8 9 9 10 11 12 13
10 10 9 9 9 8 8 9 10 9 9 10 10 8 8 7 7 8 11 11 10 7 6 7 5 6 9 9 10 12 11 13 16 17 17 16 11 10 8 8 9 8 8 6 5 5 6 6 4 3 5 6 8 8 10 8 5 5 5 4 2 1 2 3 4 5 9 10 10 10 10 7 10 12 12 12 13 12 8 8 10 10 10 10 12
11 12 10 9 9 9 8 8 9 10 9 9 9 10 9 9 7 7 7 8 8 6 7 7 7 4 4 7 8 11 11 12 16 17 17 17 11 8 8 8 9 8 8 7 5 5 4 3 5 6 6 7 9 9 10 7 4 5 4 4 3 2 2 3 3 5 6 7 6 6 6 8 7 6 7 11 12 11 8 8 9 9 10 11 11
8 8 9 9 9 9 8 8 8 10 10 9 8 9 8 8 9 9 7 6 8 7 7 7 9 6 5 7 7 7 10 11 12 17 16 16 14 8 7 8 9 9 8 7 8 5 4 3 3 9 9 9 9 9 10 9 5 4 4 3 3 2 2 2 3 3 4 4 4 5 4 4 4 5 5 6 7 8 8 8 8 8 9 10 10
9 8 8 9 9 9 8 8 10 8 8 10 9 8 8 10 9 10 10 7 8 8 9 8 8 7 6 4 6 6 6 9 10 16 16 16 16 12 6 6 8 8 8 7 6 7 6 5 3 9 10 10 9 9 9 9 7 5 4 3 3 3 5 3 2 4 3 3 3 3 2 3 3 3 4 5 5 6 7 8 8 8 8 9 10
8 9 9 9 8 8 9 7 8 9 8 10 11 9 7 8 9 10 9 10 12 11 9 8 7 7 7 5 5 7 6 9 10 14 15 16 15 13 6 6 8 8 8 6 6 5 7 8 7 9 11 10 9 9 9 9 8 5 4 6 6 6 4 2 0 1 1 1 1 2 2 3 3 4 5 5 5 7 7 7 7 7 8 8 9
8 8 8 9 9 9 8 10 9 8 10 10 12 11 9 10 9 10 11 11 12 12 10 10 8 7 7 7 6 7 8 7 11 11 15 16 15 12 11 9 14 6 8 9 8 7 7 8 8 12 12 11 10 10 10 9 7 5 8 7 7 8 5 1 2 1 1 1 2 2 3 4 5 5 6 5 6 6 7 7 7 7 8 9 10
8 8 8 8 9 8 9 9 8 9 11 11 11 12 11 10 10 10 10 11 11 11 7 7 8 8 8 7 7 8 7 7 10 12 12 16 15 14 14 14 15 6 4 5 7 7 7 7 8 13 12 12 11 11 10 8 6 9 9 9 9 7 3 3 1 1 2 2 2 3 4 5 5 6 6 7 7 8 8 7 7 7 7 8 10
9 9 9 8 9 8 8 8 9 9 10 11 12 11 11 11 11 8 10 9 10 11 8 8 9 9 8 7 7 8 8 7 6 11 14 14 15 15 15 16 14 13 7 5 5 5 8 12 13 14 13 12 12 11 10 10 10 9 9 9 7 1 2 2 2 2 2 3 2 3 3 4 5 6 7 8 9 7 6 5 5 5 5 8 9
10 10 9 8 9 9 9 7 8 9 10 9 10 11 13 13 12 11 10 10 10 10 10 9 8 9 9 8 6 7 7 6 7 7 9 11 11 15 15 15 14 12 8 7 10 13 13 13 15 14 13 10 6 4 4 5 9 9 9 7 2 1 1 2 1 2 2 2 2 2 4 5 5 6 7 7 7 7 8 8 8 5 5 5 6
10 9 9 8 8 9 11 9 8 8 8 8 7 9 9 10 10 11 11 11 11 9 10 11 10 9 9 10 8 6 5 5 6 8 7 7 7 10 11 11 13 13 7 7 10 8 10 9 7 9 8 11 10 9 8 7 6 4 3 2 2 1 1 1 1 2 1 1 2 2 3 4 4 5 6 6 6 6 7 9 8 9 10 9 8
10 9 10 8 8 9 9 10 11 9 10 10 10 9 9 10 12 14 15 14 14 12 12 12 13 13 10 10 11 7 5 7 8 8 10 9 8 8 7 8 9 8 7 5 6 6 6 7 8 4 5 5 4 3 3 3 3 3 2 1 1 2 2 4 4 1 0 1 1 1 2 2 3 4 5 5 5 6 7 8 9 10 9 10 10
8 8 8 7 8 7 7 9 9 9 9 8 8 9 11 12 12 9 7 9 13 17 17 13 12 12 12 13 13 10 10 11 15 15 13 16 14 12 10 10 10 9 9 11 8 6 5 5 5 5 4 5 4 3 2 2 1 2 1 0 1 1 1 1 1 1 1 1 1 2 3 3 3 3 4 5 6 6 7 7 7 8 9 7 7
7 8 7 7 7 7 7 7 7 7 8 9 8 4 2 4 4 7 8 8 5 2 5 9 10 11 12 11 13 18 19 19 19 23 20 20 19 17 14 15 13 11 14 19 9 7 6 7 6 6 6 4 5 4 3 3 2 1 0 1 1 0 0 0 0 1 2 1 2 2 3 4 4 5 5 4 5 5 7 8 7 8 8 8 9
7 6 7 7 8 8 7 8 7 7 7 8 8 8 6 3 4 4 5 3 3 4 7 5 7 9 8 10 11 7 2 8 21 24 22 22 21 19 18 18 18 19 20 13 6 7 7 8 6 4 5 4 5 5 4 4 3 2 1 0 0 0 0 0 1 2 2 1 2 2 2 3 5 5 5 5 6 6 5 5 5 6 6 8 9
8 8 8 6 8 8 7 7 7 8 7 7 8 8 8 7 3 4 7 5 5 6 7 8 11 14 13 8 8 5 7 14 21 23 23 22 21 20 19 19 19 20 21 15 7 6 6 7 7 6 6 6 5 4 4 4 4 4 3 1 1 1 1 1 1 1 1 1 2 3 2 3 5 4 4 5 6 5 5 6 6 7 7 6 7
7 7 7 7 7 8 7 7 8 8 9 9 8 8 9 9 10 7 3 6 9 10 10 11 13 14 16 13 13 9 9 16 23 24 23 22 22 20 19 20 20 20 21 10 6 7 6 6 7 6 7 8 6 6 5 4 4 4 3 3 3 2 1 1 1 1 1 1 2 2 2 2 3 4 4 4 5 5 5 5 5 6 6 7 7
4 5 7 7 8 7 7 7 7 7 6 6 7 8 8 9 9 8 8 6 5 7 10 13 14 15 16 16 16 13 13 18 22 23 23 22 21 20 19 15 19 22 18 10 8 8 7 7 6 7 7 5 5 5 4 4 4 4 4 3 3 2 2 1 0 1 0 1 2 2 2 2 3 3 4 4 4 3 3 5 6 7 7 7 7
4 5 8 7 7 7 7 6 6 6 6 7 8 8 9 8 8 9 11 13 13 11 10 10 13 17 14 14 17 16 17 20 23 22 23 21 21 20 19 11 13 13 11 7 7 6 9 9 9 8 7 8 7 7 7 6 5 5 5 4 3 2 1 1 1 1 1 2 2 1 2 3 2 3 2 3 4 4 4 5 6 6 7 7 8
5 5 5 7 6 5 6 6 7 8 9 9 8 8 7 8 9 9 9 8 7 8 7 7 7 12 16 13 16 16 18 21 21 21 21 22 22 24 14 13 11 10 11 10 10 8 6 7 7 8 8 7 6 7 7 7 7 6 4 5 4 4 3 2 3 2 2 2 2 2 3 3 2 2 1 2 1 2 3 4 5 6 6 6 7
5 5 4 4 5 5 5 5 6 7 6 6 6 7 7 8 7 7 7 9 9 8 8 7 7 8 10 7 13 16 19 19 20 20 20 20 22 15 11 11 12 11 10 12 9 8 9 9 8 7 9 10 9 8 8 7 7 6 5 5 5 4 4 4 4 3 3 2 2 2 2 3 3 3 2 2 2 2 2 3 3 6 6 8 9
4 4 4 3 4 4 5 5 5 5 5 6 6 7 7 8 8 9 8 10 10 9 9 9 9 11 14 13 13 10 13 17 19 16 16 17 15 11 10 10 10 11 13 10 10 10 10 9 9 11 11 10 11 9 9 8 7 7 7 6 6 5 7 5 6 4 3 3 3 3 2 3 3 3 3 2 2 2 2 3 3 4 6 7 5
4 4 5 6 5 5 5 5 5 6 6 6 6 7 7 7 7 8 9 8 7 8 7 8 10 11 10 10 10 10 12 11 13 14 13 12 11 10 10 10 10 10 8 9 8 10 10 10 8 8 8 10 10 10 11 9 7 8 7 7 6 4 6 4 5 4 4 3 3 2 2 3 3 3 3 3 3 3 3 3 2 3 5 6 5
4 4 4 6 4 5 5 6 6 7 7 7 7 6 7 8 9 9 8 7 9 9 9 10 11 11 9 11 12 12 16 15 13 13 12 12 12 12 11 12 12 12 11 9 9 8 9 7 6 7 7 8 9 10 9 9 9 8 7 8 8 8 8 6 6 5 5 4 3 3 3 4 4 3 3 4 4 3 2 2 3 3 4 5 6
4 3 4 4 4 4 4 5 6 7 6 6 6 7 10 9 8 6 7 9 9 8 9 9 9 6 6 11 15 17 14 14 13 13 13 14 13 12 11 11 11 10 9 9 9 8 7 7 7 7 7 7 7 7 8 9 9 7 7 7 6 6 5 5 6 5 5 4 4 4 3 3 3 4 5 3 5 4 2 3 3 3 4 5 5
5 4 4 4 4 4 4 5 4 5 6 5 7 8 7 6 7 7 8 9 7 7 8 8 7 5 6 15 17 20 12 9 8 8 9 9 10 10 10 9 9 9 10 10 11 12 10 9 9 9 11 9 9 9 8 7 7 7 7 7 8 8 7 7 6 6 5 4 4 4 4 4 4 5 6 6 3 2 3 3 3 4 3 4 5
3 4 4 4 5 6 6 6 5 5 6 6 7 6 6 6 7 7 7 7 8 8 8 8 7 6 7 12 14 17 11 8 7 9 8 8 8 7 8 9 9 9 9 8 8 9 11 12 12 9 10 9 9 9 9 8 7 8 8 9 8 9 8 6 5 6 4 4 5 4 4 4 5 5 4 4 4 3 3 3 3 4 4 4 4
3 3 4 4 4 4 4 4 5 5 6 7 7 6 6 6 7 7 8 8 8 8 8 8 6 6 6 6 10 11 12 11 9 9 9 9 9 10 9 9 8 9 9 9 9 8 10 11 11 7 7 6 8 8 8 7 8 9 8 8 8 8 7 7 7 6 6 5 4 4 4 4 4 4 5 6 4 3 3 3 3 3 4 4 4
4 4 3 4 4 4 5 4 5 5 5 5 6 6 5 7 8 8 8 8 7 7 8 8 7 6 6 8 9 11 12 11 10 9 9 10 10 10 9 9 10 11 10 10 10 9 10 9 7 7 8 6 6 8 8 8 7 7 7 8 8 8 8 9 8 6 6 6 5 4 4 4 4 4 4 5 4 4 4 4 3 4 4 4 3
3 3 4 4 5 5 5 5 5 5 6 6 5 5 7 7 8 8 7 7 7 7 7 7 7 6 6 8 9 9 10 10 10 9 7 8 8 8 8 9 9 10 11 11 12 13 10 11 11 9 8 8 7 6 6 7 7 7 8 9 10 9 7 5 5 6 6 6 6 4 3 4 4 4 6 5 5 5 4 4 3 3 3 4 4
3 3 4 4 4 4 4 4 4 5 6 6 6 7 7 7 7 7 7 8 8 7 8 8 7 8 7 7 7 8 8 9 9 9 10 11 10 10 10 10 11 11 12 11 9 7 7 9 10 12 11 8 7 8 6 6 6 6 6 5 6 7 6 5 6 6 6 6 6 5 4 4 4 3 6 6 5 5 4 4 4 4 4 4 4
3 4 3 4 3 4 4 4 5 5 5 6 6 6 6 6 7 7 7 7 8 8 8 8 8 8 7 9 9 10 10 11 10 10 10 11 11 11 11 11 11 11 10 12 12 9 8 8 9 10 10 11 10 7 7 6 6 6 6 6 6 8 8 7 7 6 5 6 6 6 6 5 3 4 4 6 6 5 5 4 3 4 4 4 5
3 3 3 3 3 4 4 5 5 5 5 5 6 7 6 7 7 7 7 8 8 8 8 9 9 8 8 8 8 9 9 9 11 11 11 11 10 10 9 10 9 10 12 14 10 13 11 9 9 10 12 12 11 9 7 7 7 7 7 6 8 12 12 11 7 8 8 7 6 6 5 5 6 5 6 6 6 5 5 5 4 3 4 4 4
3 3 3 3 4 4 4 4 4 4 5 4 5 5 5 6 7 7 7 7 7 8 8 8 8 8 8 9 8 9 9 11 11 11 10 10 9 9 9 10 11 11 13 9 9 10 10 12 13 12 11 11 10 9 8 8 7 7 6 7 11 13 12 13 12 11 8 5 7 5 6 5 5 5 6 7 7 7 6 5 5 5 4 4 4
3 2 3 3 4 3 3 4 5 5 5 5 5 5 6 6 7 7 7 7 8 8 7 8 8 8 9 9 8 9 10 10 10 9 9 9 9 8 9 11 12 13 10 9 11 10 11 13 12 11 11 11 11 9 8 7 7 8 9 12 13 13 13 12 8 12 13 9 5 5 6 7 6 7 7 6 7 7 8 6 6 5 4 4 4
Wind_Direction
187 196 184 191 186 189 188 186 183 178 174 179 178 183 179 177 179 176 150 167 154 154 153 152 144 139 134 132 132 133 123 124 124 124 120 118 117 121 121 116 113 112 109 99 97 110 112 109 108 111 116 95 84 86 84 84 89 85 81 86 81 57 62 329 263 290 302 95 345 332 339 341 335 344 337 338 338 341 340 337 334 336 334 330 323
196 182 177 178 179 177 174 166 166 166 171 176 179 172 168 170 158 143 158 153 156 146 142 138 138 139 137 135 132 131 130 126 130 126 123 119 117 120 123 121 114 113 112 115 114 111 110 110 113 111 94 92 92 90 96 91 88 87 78 72 70 56 46 58 294 277 302 331 337 340 334 343 328 348 345 337 336 336 332 328 327 330 327 325 320
176 165 166 168 168 166 161 165 163 167 164 166 163 159 153 147 146 143 137 132 125 141 141 140 141 137 133 131 125 125 128 124 129 130 130 130 129 123 125 126 125 127 121 121 112 112 104 107 110 110 107 95 92 92 92 88 85 86 78 68 66 56 46 38 343 299 314 324 336 336 337 336 337 332 335 328 319 322 322 327 326 323 310 309 313
156 154 159 161 158 155 162 159 159 160 160 156 147 137 131 132 131 131 136 132 128 115 130 133 128 128 126 121 119 122 119 115 113 118 127 130 126 123 120 120 117 117 121 121 118 116 117 109 108 115 114 103 100 93 88 89 87 84 81 70 68 59 43 39 26 359 325 326 330 332 328 328 329 325 322 318 321 320 319 314 314 314 318 317 320
149 146 148 145 147 151 151 152 146 140 132 130 134 134 135 132 129 131 126 119 121 120 102 113 116 115 123 130 128 123 124 126 125 123 118 119 115 115 115 110 111 114 109 111 116 117 115 111 122 123 117 106 104 99 98 95 88 82 77 71 62 58 47 37 26 8 340 325 319 319 319 317 314 318 337 339 331 324 318 313 319 319 325 332 327
134 131 134 134 131 133 133 130 136 137 136 136 138 136 132 129 125 121 131 122 113 112 119 111 116 118 116 117 117 128 133 136 133 126 120 114 108 108 112 115 112 108 107 107 112 112 114 114 114 114 108 110 113 110 105 101 96 83 76 71 66 54 50 36 23 6 348 332 327 323 331 331 330 334 345 343 335 331 329 324 316 307 328 332 332
130 129 134 131 131 138 142 140 138 133 129 125 122 123 122 125 128 126 123 124 124 118 110 113 118 124 127 127 131 132 129 124 123 119 120 120 119 120 116 108 105 102 104 109 106 106 104 104 105 106 108 112 115 114 110 100 94 88 75 71 58 50 42 29 17 5 356 342 331 325 322 323 325 324 335 332 326 332 335 333 329 330 330 334 329
131 131 135 129 135 135 125 122 120 118 114 118 119 115 114 111 110 118 122 120 122 127 128 123 118 113 116 113 118 125 122 116 116 119 120 119 119 116 116 117 115 112 109 106 105 99 95 95 97 94 99 104 107 108 101 98 96 87 75 60 51 42 35 20 12 5 355 348 335 332 331 322 321 319 324 339 338 338 345 332 317 319 322 327 331
135 137 134 129 126 120 114 105 111 114 113 114 116 114 114 115 116 117 119 116 117 121 122 124 119 104 99 106 113 112 113 121 129 131 126 119 120 121 124 125 124 119 112 106 99 95 94 94 92 96 98 103 101 98 95 97 93 82 67 58 50 43 33 19 12 359 351 342 331 331 329 331 332 333 337 343 344 332 327 325 314 314 318 318 326
137 134 129 125 123 119 115 116 120 118 119 121 122 121 123 125 122 118 114 117 121 121 115 112 111 116 113 106 100 103 101 101 125 121 124 131 128 123 120 120 119 118 115 110 104 99 97 98 93 90 91 91 95 99 98 92 87 85 79 65 55 45 30 19 6 359 349 341 336 334 333 334 332 331 326 329 330 326 322 323 320 320 320 317 314
138 132 129 132 132 126 126 127 130 127 128 125 128 125 122 119 115 113 114 116 118 121 120 108 110 117 118 120 116 111 111 125 131 129 130 129 125 127 125 120 116 114 115 118 119 114 106 98 99 96 100 102 106 104 98 94 87 77 72 63 58 55 38 15 360 354 347 333 327 326 325 320 324 327 325 327 324 326 323 324 321 322 325 329 326
138 135 141 139 142 138 140 134 133 132 133 134 135 132 129 123 120 121 119 117 118 122 111 111 117 120 115 115 115 123 124 134 131 131 131 130 128 123 121 120 121 120 122 119 119 119 118 112 106 109 113 119 134 132 164 117 87 81 75 69 59 40 35 27 3 350 345 330 324 318 317 317 321 326 326 326 325 324 328 325 321 321 321 321 317
142 143 150 147 148 143 146 141 141 139 139 136 132 129 129 126 127 130 130 130 127 112 119 120 119 123 123 123 123 127 127 133 130 130 130 129 125 120 118 120 121 124 122 121 123 123 124 122 124 126 136 149 159 177 169 185 115 88 70 63 50 41 25 21 20 14 348 331 320 312 317 324 321 322 323 319 324 324 326 324 324 320 317 309 306
153 152 153 156 155 152 154 146 145 143 139 137 137 136 137 136 135 130 128 124 117 115 120 123 127 126 128 126 123 125 126 133 131 131 130 127 126 121 118 118 114 117 120 123 125 126 130 132 133 138 160 182 184 184 169 141 119 99 75 69 56 29 9 11 29 14 2 340 321 309 317 325 316 316 319 328 331 327 326 322 325 320 317 308 307
159 158 159 162 161 161 155 153 144 143 145 144 142 142 139 135 137 143 141 139 138 140 141 135 135 131 129 127 123 123 130 137 134 133 131 129 125 119 114 112 110 111 112 117 122 126 131 130 130 135 156 168 199 146 129 122 110 96 84 66 55 28 2 40 19 1 352 342 330 318 316 319 313 317 325 331 330 324 320 315 317 313 309 306 301
162 164 169 169 170 166 159 154 149 150 151 150 147 146 146 149 144 135 127 119 110 118 115 128 137 138 136 134 128 127 137 140 137 135 132 128 123 114 115 114 114 115 115 119 124 128 132 136 142 152 161 176 149 124 124 114 111 104 97 93 74 27 28 44 7 358 353 344 333 323 317 313 319 326 335 339 330 323 321 318 313 318 317 314 313
174 175 177 172 169 169 164 156 156 156 155 152 153 153 150 148 138 133 131 135 138 142 141 140 140 141 141 142 133 132 137 142 140 137 133 130 123 117 118 114 115 117 120 125 127 129 137 149 155 157 162 156 132 125 122 118 111 118 115 103 95 54 44 9 354 357 353 349 343 336 329 329 337 346 347 338 336 345 337 332 333 329 320 317 316
177 173 177 172 167 167 165 160 157 157 158 159 156 153 146 140 140 146 143 147 144 144 134 125 128 141 145 146 146 139 140 144 143 139 134 134 131 128 129 121 121 126 125 127 127 133 144 160 172 169 148 134 132 125 120 119 122 127 127 113 104 63 47 8 344 346 352 352 344 342 337 350 1 358 345 342 353 358 351 336 323 320 314 316 314
179 176 171 165 162 161 160 160 159 158 161 158 155 151 152 147 137 136 137 135 132 121 136 127 124 117 128 135 137 138 137 142 144 141 140 141 137 132 134 129 130 138 139 137 140 140 153 172 179 159 143 136 131 124 122 124 129 131 132 121 95 57 38 27 0 349 348 348 347 346 345 5 359 344 334 348 354 353 345 327 321 318 313 313 314
169 159 153 157 158 157 160 160 163 163 158 148 148 146 138 136 142 138 132 129 129 130 129 135 136 131 132 134 139 140 139 143 146 147 147 148 147 141 144 140 142 144 148 149 148 153 156 169 186 155 145 141 136 132 128 125 121 117 120 113 98 57 70 56 20 357 341 328 320 331 345 343 332 329 337 347 348 344 337 326 322 319 313 311 309
154 154 149 151 158 162 162 167 162 163 155 148 141 139 147 147 142 140 138 134 134 134 139 137 133 131 133 126 132 138 141 141 149 152 152 153 153 151 151 149 145 147 149 152 158 156 160 159 168 156 151 146 142 138 132 124 118 112 110 110 92 90 82 51 357 357 327 305 310 325 329 325 324 332 341 348 346 337 328 321 315 316 312 307 307
145 147 153 158 161 162 164 159 160 151 143 141 142 145 145 144 146 145 144 144 144 143 143 140 136 132 134 135 134 141 143 146 148 154 155 157 159 161 151 161 157 143 144 152 159 162 161 160 162 159 155 149 143 141 134 124 113 105 93 93 83 77 71 54 9 343 317 335 345 342 346 349 342 348 345 342 338 330 322 315 310 310 307 299 297
145 151 156 160 164 164 160 157 152 149 150 153 148 149 150 149 150 149 148 147 147 148 149 148 141 140 138 141 145 150 154 152 155 156 160 161 162 163 162 155 162 160 149 160 169 162 159 159 159 159 156 151 146 141 135 124 112 105 98 87 84 79 74 74 68 36 22 19 9 0 354 356 349 342 336 333 329 323 317 309 304 303 300 296 292
146 153 161 163 158 160 159 156 152 154 155 154 154 152 157 155 154 159 158 154 153 152 152 149 147 149 149 148 152 159 162 162 163 164 164 165 166 165 165 165 163 160 157 145 153 159 160 163 163 160 156 152 146 137 130 125 116 104 91 85 79 79 78 79 65 44 41 33 18 360 353 350 340 333 332 327 323 316 308 300 296 292 287 293 289
151 159 164 164 162 156 153 157 158 160 162 159 158 160 157 159 158 165 161 161 160 158 158 160 159 159 158 159 158 163 168 168 167 171 171 171 170 167 165 165 162 159 151 137 131 149 158 163 164 159 155 148 140 126 117 109 104 94 87 78 74 58 80 77 73 59 53 36 10 342 336 339 334 325 321 318 311 300 299 293 283 266 272 281 285
161 166 163 163 162 154 153 157 161 166 166 171 170 167 166 168 166 164 168 168 167 162 161 163 162 163 167 168 169 165 166 166 169 173 174 175 173 171 168 164 162 157 145 149 156 159 161 163 161 156 146 135 122 110 112 111 98 89 76 69 57 71 83 89 77 69 56 23 335 328 326 327 332 328 315 310 314 325 328 327 330 319 321 320 315
159 158 163 161 159 164 163 166 165 166 171 169 171 171 172 171 166 169 173 169 169 167 167 168 168 173 171 172 169 168 167 174 173 176 175 175 171 169 166 165 160 157 152 162 161 160 157 148 141 142 143 142 133 126 116 98 82 71 67 57 57 52 53 76 84 73 37 331 320 322 323 327 323 320 326 327 325 330 340 334 333 333 335 333 325
163 168 167 166 170 173 171 166 166 171 180 177 173 176 182 180 177 179 179 176 171 176 175 178 179 178 174 168 172 175 182 186 189 180 178 175 171 166 160 160 164 159 150 138 112 118 125 139 134 111 110 92 93 69 78 93 97 86 62 66 53 16 36 56 55 71 313 287 274 288 314 333 335 332 325 327 326 334 342 342 345 333 337 336 337
160 161 163 163 173 177 174 173 179 176 177 186 194 191 182 184 188 194 208 193 183 175 176 187 188 184 173 168 168 178 187 195 201 193 184 178 170 166 169 174 168 168 162 145 116 102 111 123 141 144 145 143 135 127 117 109 95 84 66 30 55 25 41 46 39 3 323 334 341 342 342 343 335 328 330 328 339 341 343 342 343 336 329 335 331
157 168 168 173 171 173 176 178 180 178 179 182 176 190 228 201 212 198 195 197 209 310 226 195 187 174 177 188 180 172 186 202 187 183 183 181 181 176 173 171 168 161 160 158 146 139 155 161 171 166 160 161 165 168 168 162 163 140 212 126 83 332 71 26 314 316 320 335 324 342 349 346 337 343 342 337 329 341 347 351 335 337 334 337 330
169 168 174 185 181 179 176 178 183 181 182 179 179 177 165 175 177 178 178 191 177 184 181 166 161 188 189 176 194 226 3 148 173 182 181 182 180 178 174 175 172 169 166 148 146 164 165 169 174 176 178 169 175 175 164 161 168 164 189 218 216 230 256 283 274 320 315 308 326 339 348 341 333 335 342 341 337 330 338 341 338 337 337 332 326
178 184 184 181 176 184 183 181 176 180 182 178 182 177 176 172 168 165 163 175 179 180 175 177 182 186 196 195 178 175 173 173 176 179 180 179 179 178 176 176 175 174 175 162 150 179 176 170 170 182 173 180 189 173 175 176 172 170 167 179 219 209 200 234 300 341 308 319 325 330 334 331 327 329 333 336 336 333 336 341 347 343 333 327 319
180 176 177 177 179 182 181 185 186 185 182 180 185 183 183 183 182 183 179 188 194 195 196 194 192 189 191 192 190 192 185 178 177 177 175 177 176 178 177 178 177 178 172 174 182 174 183 182 176 173 180 187 180 179 179 182 176 180 186 181 184 202 201 259 337 321 309 298 314 316 317 314 311 319 324 333 344 342 339 338 336 337 330 325 319
185 171 178 179 179 186 190 189 186 191 188 189 190 191 196 193 193 180 171 166 194 217 217 207 197 191 192 191 189 192 187 179 180 175 173 175 177 176 175 176 182 186 181 184 175 188 175 182 185 182 184 176 175 166 175 182 181 181 190 199 191 191 213 214 275 276 293 304 301 298 303 299 291 309 322 336 340 336 336 339 339 339 335 330 319
177 176 176 179 187 189 185 184 183 183 182 191 193 195 198 199 194 188 190 191 193 191 190 197 201 194 190 190 190 188 182 181 179 174 173 174 174 175 170 171 181 192 186 182 193 185 178 188 181 183 175 180 181 177 181 182 182 187 188 183 197 200 210 212 218 223 250 266 280 291 279 284 276 290 306 322 333 340 342 337 334 330 324 323 323
187 186 186 186 186 184 183 186 184 187 191 196 195 199 200 198 201 205 205 209 205 196 189 189 180 194 189 188 190 187 182 179 176 174 173 176 176 175 169 187 185 195 190 190 198 198 192 191 182 179 176 183 161 178 177 180 189 188 178 167 182 184 191 209 214 217 227 232 242 268 284 282 273 275 271 281 259 304 322 323 321 322 318 317 320
192 197 189 189 186 189 190 190 196 197 196 190 191 201 204 209 211 208 205 208 206 203 186 159 147 167 188 192 190 187 185 181 179 175 177 181 186 186 190 187 192 180 196 191 194 192 200 201 188 174 180 177 176 176 166 183 178 173 182 181 165 179 199 185 212 215 209 212 226 226 241 247 253 252 268 280 300 297 305 310 313 315 315 316 319
200 198 192 176 179 180 184 196 196 191 196 195 204 205 211 212 212 209 209 209 205 193 180 178 179 181 178 177 177 179 182 181 177 178 183 188 193 193 187 192 190 196 201 200 199 196 201 184 185 184 181 171 167 169 173 182 173 163 174 177 184 184 207 214 225 213 201 204 213 219 229 249 247 251 263 265 267 277 289 296 302 309 312 313 313
204 202 192 180 182 187 190 186 187 193 202 202 207 207 214 213 214 218 220 218 208 202 199 188 191 195 191 172 171 170 162 177 185 186 182 190 199 197 185 188 193 202 200 200 196 200 203 193 186 188 174 172 166 168 171 175 168 168 164 165 183 177 204 202 210 212 207 209 207 213 212 233 237 245 253 253 255 259 265 267 280 297 310 312 309
190 208 198 195 188 193 186 194 194 199 205 202 211 208 217 216 219 219 218 215 213 209 206 200 202 204 183 167 177 176 185 189 190 189 185 188 197 199 189 192 196 198 196 197 199 193 190 193 180 186 182 179 176 173 175 172 174 170 168 188 183 191 200 194 203 200 206 200 199 200 208 214 227 244 256 252 251 250 234 245 274 288 294 299 301
189 184 199 207 200 192 196 199 207 212 210 211 212 209 218 218 221 222 221 221 220 217 216 219 220 210 188 195 189 186 188 193 191 190 194 193 194 194 197 199 195 197 198 197 196 191 191 180 184 189 184 182 181 183 175 169 167 172 181 187 193 201 191 194 199 207 201 194 202 206 208 200 223 232 251 252 256 254 245 265 271 275 280 292 296
176 183 188 200 196 197 205 218 219 219 218 218 218 222 226 225 222 223 223 226 226 222 221 223 218 191 195 198 198 200 203 212 203 202 203 196 194 198 202 206 203 203 203 205 200 188 178 177 176 179 178 180 177 178 167 179 180 181 177 182 191 196 205 206 202 203 201 202 197 193 187 204 213 229 239 253 251 249 260 260 259 264 271 287 296
186 191 196 188 194 203 208 215 204 212 219 224 230 229 232 231 231 228 232 234 230 226 229 227 219 189 191 193 201 205 215 218 213 210 205 205 203 195 195 204 206 209 213 217 213 196 180 176 174 180 181 182 181 177 179 182 176 176 176 182 188 191 197 194 190 202 194 194 200 205 200 200 221 232 237 247 250 250 242 239 251 259 265 277 280
185 192 191 199 207 217 220 213 217 218 220 223 226 225 223 229 233 232 234 235 233 233 231 233 222 199 199 191 199 207 215 215 209 208 204 200 202 203 201 197 197 201 207 211 212 198 176 184 181 170 163 172 177 178 179 176 174 180 181 179 187 193 193 190 195 194 188 188 194 196 196 192 210 215 227 237 232 241 245 234 238 246 265 270 277
177 191 194 206 210 210 223 220 222 226 224 224 229 232 225 226 229 233 232 236 237 234 234 230 217 197 192 197 204 210 216 216 214 210 207 202 201 202 198 199 201 203 207 211 198 170 187 184 170 165 172 175 171 176 175 171 179 187 184 181 183 195 195 192 196 188 178 184 187 194 196 193 199 203 223 228 232 233 241 229 222 250 263 270 277
190 192 204 208 214 216 216 216 219 221 227 227 229 231 234 228 232 233 233 237 237 237 241 235 226 214 206 206 210 215 219 220 221 217 214 211 207 205 201 200 205 208 209 207 193 179 190 187 178 173 173 169 169 177 183 178 183 188 189 195 200 202 186 178 168 166 175 182 184 188 194 198 204 207 222 225 230 233 227 224 219 227 235 252 263
188 200 202 214 221 226 228 227 223 227 229 232 231 234 232 234 233 234 236 237 237 234 232 224 215 213 204 206 210 217 218 223 225 219 215 215 211 208 205 203 203 205 205 199 185 175 182 185 182 175 170 164 163 170 179 183 183 189 192 197 200 194 183 177 172 171 170 182 177 174 193 198 206 210 229 236 234 232 233 230 226 236 236 244 250
198 205 217 219 227 231 235 228 232 234 234 238 241 241 242 243 241 240 240 235 234 234 236 236 233 224 212 213 209 210 211 216 218 221 218 215 214 211 207 205 206 209 200 188 182 184 187 188 178 175 171 170 167 172 174 178 184 186 191 196 198 198 185 179 173 177 172 174 181 190 195 202 200 207 219 224 229 226 226 226 227 235 232 236 251
201 205 222 228 230 235 236 234 239 234 235 238 240 243 244 243 244 244 242 241 242 238 235 234 233 225 222 223 217 219 220 220 222 222 221 221 217 212 206 203 205 203 197 191 182 179 185 186 178 175 174 175 173 171 171 171 181 185 191 196 198 198 192 186 179 181 178 170 172 182 195 199 205 211 220 227 227 222 226 228 222 225 235 242 242
203 215 221 233 238 246 252 257 253 256 260 246 242 247 246 246 248 245 244 245 243 241 238 236 233 230 225 227 222 222 218 221 223 224 222 218 213 208 204 190 189 193 188 184 184 181 184 182 176 171 173 177 178 177 178 178 182 186 189 197 201 197 193 192 193 186 179 171 176 185 188 201 206 213 219 224 225 224 223 223 221 226 228 228 235
206 217 221 229 233 243 249 251 256 260 254 254 254 254 252 250 249 247 247 244 244 244 239 235 235 234 231 230 227 227 227 229 229 228 227 224 216 203 195 191 188 178 189 188 189 188 183 175 179 177 171 170 174 179 180 185 180 182 196 202 200 197 196 194 196 201 195 183 170 181 194 198 205 214 220 218 219 219 221 220 223 218 222 226 236